DLH133 EDDF-GMMN

Flight info

Callsign DLH133
Flight time N/A
Altitude 37000
Route ANEKI2L/18 ANEKI Y163 HERBI Y164 MOPAN DCT LUTIX DCT BENOT DCT NEMOS DCT NINTU DCT MEBAK DCT REPSI DCT LERGA DCT MINSO DCT NARAK DCT AGN DCT MAQAB DCT TIVLI N869 GALTO UB11 TUSOR TUSOR3A
Aircraft A320/M-SDE3FGHIRWY/LB1

Departure

Time N/A
Airport Frankfurt Main Airport (EDDF)

Arrival

Time 2026-05-07 18:31
Airport Mohammed V International Airport (GMMN)
Time Latitude Longitude Altitude Speed Heading
2026-05-07 15:20 49.63509 8.52200 12883 ft 361 kts 186°
2026-05-07 15:20 49.60983 8.51870 13591 ft 365 kts 186°
2026-05-07 15:20 49.58403 8.51530 14244 ft 370 kts 186°
2026-05-07 15:20 49.55803 8.51189 14889 ft 373 kts 186°
2026-05-07 15:21 49.53200 8.50847 15533 ft 375 kts 186°
2026-05-07 15:21 49.50556 8.50495 16171 ft 378 kts 186°
2026-05-07 15:21 49.47928 8.50144 16799 ft 381 kts 186°
2026-05-07 15:21 49.45276 8.49793 17420 ft 384 kts 186°
2026-05-07 15:22 49.42625 8.49444 18025 ft 387 kts 187°
2026-05-07 15:22 49.39917 8.49093 18585 ft 390 kts 187°
2026-05-07 15:22 49.37173 8.48741 19107 ft 392 kts 187°
2026-05-07 15:22 49.34442 8.48391 19631 ft 395 kts 187°
2026-05-07 15:23 49.31713 8.48040 20133 ft 397 kts 187°
2026-05-07 15:23 49.28971 8.47684 20634 ft 399 kts 187°
2026-05-07 15:23 49.26130 8.47316 21125 ft 402 kts 187°
2026-05-07 15:23 49.23328 8.46954 21601 ft 405 kts 187°
2026-05-07 15:24 49.20467 8.46580 22083 ft 407 kts 187°
2026-05-07 15:24 49.17636 8.46206 22553 ft 410 kts 187°
2026-05-07 15:24 49.14763 8.45828 23022 ft 412 kts 187°
2026-05-07 15:24 49.12013 8.45473 23465 ft 414 kts 187°
2026-05-07 15:25 49.09078 8.45097 23875 ft 417 kts 187°
2026-05-07 15:25 49.06188 8.44642 24252 ft 418 kts 192°
2026-05-07 15:25 49.03344 8.43713 24610 ft 419 kts 195°
2026-05-07 15:25 49.00497 8.42714 24993 ft 421 kts 195°
2026-05-07 15:26 48.97604 8.41698 25345 ft 423 kts 195°
2026-05-07 15:26 48.94731 8.40695 25698 ft 425 kts 195°
2026-05-07 15:26 48.91842 8.39690 26056 ft 427 kts 195°
2026-05-07 15:26 48.89874 8.39005 26310 ft 429 kts 195°
2026-05-07 15:27 48.86970 8.37998 26661 ft 431 kts 195°
2026-05-07 15:27 48.83988 8.36967 27009 ft 433 kts 195°
2026-05-07 15:27 48.81042 8.35949 27347 ft 435 kts 195°
2026-05-07 15:27 48.78102 8.34930 27677 ft 437 kts 195°
2026-05-07 15:28 48.75107 8.33865 28008 ft 439 kts 195°
2026-05-07 15:28 48.72099 8.32768 28313 ft 441 kts 196°
2026-05-07 15:28 48.69089 8.31656 28613 ft 443 kts 196°
2026-05-07 15:28 48.66118 8.30556 28907 ft 445 kts 196°
2026-05-07 15:29 48.63051 8.29427 29197 ft 447 kts 196°
2026-05-07 15:29 48.60020 8.28318 29502 ft 449 kts 195°
2026-05-07 15:29 48.56988 8.27214 29847 ft 449 kts 195°
2026-05-07 15:29 48.53926 8.26105 30246 ft 448 kts 195°
2026-05-07 15:30 48.50904 8.25016 30585 ft 447 kts 195°
2026-05-07 15:30 48.47875 8.23924 30911 ft 447 kts 195°
2026-05-07 15:30 48.44865 8.22832 31231 ft 447 kts 196°
2026-05-07 15:30 48.41844 8.21729 31556 ft 447 kts 196°
2026-05-07 15:31 48.38824 8.20625 31887 ft 446 kts 196°
2026-05-07 15:31 48.35803 8.19519 32205 ft 446 kts 196°
2026-05-07 15:31 48.32784 8.18412 32526 ft 446 kts 196°
2026-05-07 15:31 48.29733 8.17295 32854 ft 446 kts 196°
2026-05-07 15:32 48.26724 8.16197 33179 ft 445 kts 197°
2026-05-07 15:32 48.23801 8.14763 33488 ft 442 kts 206°
2026-05-07 15:32 48.21024 8.12784 33798 ft 440 kts 209°
2026-05-07 15:32 48.18260 8.10731 34125 ft 440 kts 209°
2026-05-07 15:33 48.15503 8.08686 34395 ft 439 kts 209°
2026-05-07 15:33 48.12771 8.06665 34662 ft 439 kts 209°
2026-05-07 15:33 48.10003 8.04623 34953 ft 438 kts 209°
2026-05-07 15:33 48.07268 8.02609 35209 ft 438 kts 209°
2026-05-07 15:34 48.04523 8.00593 35467 ft 437 kts 209°
2026-05-07 15:34 48.01803 7.98596 35719 ft 437 kts 209°
2026-05-07 15:34 47.99040 7.96568 35964 ft 436 kts 209°
2026-05-07 15:34 47.96326 7.94580 36216 ft 435 kts 209°
2026-05-07 15:35 47.93603 7.92586 36458 ft 434 kts 209°
2026-05-07 15:35 47.90899 7.90608 36695 ft 433 kts 209°
2026-05-07 15:35 47.88206 7.88639 36944 ft 432 kts 209°
2026-05-07 15:35 47.85463 7.86630 37023 ft 434 kts 209°
2026-05-07 15:36 47.80036 7.82667 37029 ft 435 kts 209°
2026-05-07 15:36 47.74567 7.78698 37029 ft 435 kts 209°
2026-05-07 15:37 47.69081 7.74730 37032 ft 435 kts 209°
2026-05-07 15:37 47.63605 7.70768 37024 ft 435 kts 209°
2026-05-07 15:38 47.58127 7.66808 37033 ft 435 kts 209°
2026-05-07 15:38 47.52664 7.62874 37034 ft 435 kts 209°
2026-05-07 15:39 47.47200 7.58953 37036 ft 435 kts 209°
2026-05-07 15:39 47.41754 7.55039 37035 ft 435 kts 209°
2026-05-07 15:40 47.36286 7.51126 37017 ft 434 kts 209°
2026-05-07 15:40 47.30837 7.47246 37014 ft 434 kts 209°
2026-05-07 15:41 47.25399 7.43377 37011 ft 434 kts 209°
2026-05-07 15:41 47.19982 7.39508 37014 ft 433 kts 210°
2026-05-07 15:42 47.15830 7.35320 37015 ft 426 kts 226°
2026-05-07 15:42 47.12000 7.28735 37014 ft 423 kts 233°
2026-05-07 15:43 47.08295 7.21895 37017 ft 424 kts 233°
2026-05-07 15:43 47.04575 7.15091 37024 ft 423 kts 233°
2026-05-07 15:44 47.00851 7.08284 37038 ft 423 kts 233°
2026-05-07 15:44 46.97171 7.01540 37041 ft 423 kts 233°
2026-05-07 15:45 46.93438 6.94723 37039 ft 423 kts 233°
2026-05-07 15:45 46.89680 6.87906 37044 ft 422 kts 233°
2026-05-07 15:46 46.84073 6.77757 37044 ft 422 kts 233°
2026-05-07 15:47 46.80331 6.71015 37034 ft 422 kts 233°
2026-05-07 15:47 46.76603 6.64318 37030 ft 421 kts 233°
2026-05-07 15:48 46.72888 6.57656 37027 ft 421 kts 233°
2026-05-07 15:48 46.69185 6.51024 37020 ft 421 kts 233°
2026-05-07 15:49 46.65490 6.44420 37017 ft 421 kts 232°
2026-05-07 15:49 46.61760 6.37771 37021 ft 421 kts 232°
2026-05-07 15:50 46.58060 6.31196 37017 ft 421 kts 232°
2026-05-07 15:50 46.54982 6.25727 37015 ft 420 kts 232°
2026-05-07 15:51 46.51256 6.19134 37015 ft 420 kts 232°
2026-05-07 15:51 46.47517 6.12540 37013 ft 420 kts 232°
2026-05-07 15:52 46.43796 6.05988 37015 ft 420 kts 232°
2026-05-07 15:52 46.40079 5.99462 37014 ft 420 kts 232°
2026-05-07 15:53 46.36315 5.92856 37016 ft 419 kts 232°
2026-05-07 15:53 46.32599 5.86358 37016 ft 419 kts 232°
2026-05-07 15:54 46.28879 5.79863 37013 ft 419 kts 232°
2026-05-07 15:54 46.25143 5.73353 37017 ft 419 kts 232°
2026-05-07 15:55 46.21394 5.66849 37016 ft 418 kts 232°
2026-05-07 15:55 46.17659 5.60393 37014 ft 418 kts 232°
2026-05-07 15:56 46.14002 5.53832 37012 ft 417 kts 237°
2026-05-07 15:56 46.10700 5.46888 37011 ft 416 kts 237°
2026-05-07 15:57 46.07409 5.40018 37008 ft 417 kts 236°
2026-05-07 15:57 46.04061 5.33081 37007 ft 417 kts 236°
2026-05-07 15:58 46.00699 5.26136 37011 ft 416 kts 236°
2026-05-07 15:58 45.97378 5.19270 37008 ft 416 kts 236°
2026-05-07 15:59 45.94050 5.12379 37007 ft 416 kts 236°
2026-05-07 15:59 45.90725 5.05538 37005 ft 416 kts 236°
2026-05-07 16:00 45.87379 4.98682 37006 ft 416 kts 236°
2026-05-07 16:00 45.84019 4.91806 37008 ft 416 kts 236°
2026-05-07 16:01 45.80677 4.84967 37009 ft 416 kts 236°
2026-05-07 16:01 45.77887 4.79284 37007 ft 416 kts 236°
2026-05-07 16:02 45.74565 4.72520 37004 ft 416 kts 235°
2026-05-07 16:02 45.71210 4.65719 37002 ft 416 kts 235°
2026-05-07 16:03 45.67856 4.58930 37003 ft 416 kts 235°
2026-05-07 16:03 45.64515 4.52178 36986 ft 418 kts 235°
2026-05-07 16:04 45.61143 4.45367 37006 ft 417 kts 235°
2026-05-07 16:04 45.57775 4.38602 37031 ft 417 kts 235°
2026-05-07 16:05 45.54413 4.31873 37030 ft 417 kts 235°
2026-05-07 16:05 45.51007 4.25051 37013 ft 417 kts 235°
2026-05-07 16:06 45.47635 4.18328 37009 ft 417 kts 234°
2026-05-07 16:06 45.44236 4.11568 37008 ft 417 kts 234°
2026-05-07 16:07 45.40857 4.04856 37000 ft 417 kts 234°
2026-05-07 16:07 45.37456 3.98120 36996 ft 417 kts 234°
2026-05-07 16:08 45.34034 3.91365 36993 ft 417 kts 234°
2026-05-07 16:08 45.30626 3.84647 36998 ft 417 kts 234°
2026-05-07 16:09 45.27214 3.77948 36999 ft 418 kts 234°
2026-05-07 16:09 45.23784 3.71172 37004 ft 418 kts 235°
2026-05-07 16:10 45.20447 3.64358 37004 ft 418 kts 235°
2026-05-07 16:10 45.17105 3.57520 37006 ft 418 kts 235°
2026-05-07 16:11 45.13759 3.50732 37001 ft 418 kts 235°
2026-05-07 16:11 45.10422 3.43996 36996 ft 418 kts 235°
2026-05-07 16:12 45.07045 3.37213 36988 ft 418 kts 234°
2026-05-07 16:12 45.03697 3.30500 36980 ft 418 kts 234°
2026-05-07 16:13 45.00867 3.24832 36977 ft 418 kts 234°
2026-05-07 16:13 44.97487 3.18079 36986 ft 419 kts 234°
2026-05-07 16:14 44.94100 3.11316 36984 ft 419 kts 234°
2026-05-07 16:14 44.90692 3.04529 36984 ft 419 kts 234°
2026-05-07 16:15 44.87264 2.97727 36984 ft 419 kts 234°
2026-05-07 16:15 44.83871 2.90984 36986 ft 419 kts 236°
2026-05-07 16:16 44.80675 2.84109 36987 ft 419 kts 237°
2026-05-07 16:16 44.77553 2.77148 36992 ft 420 kts 237°
2026-05-07 16:17 44.74402 2.70227 36989 ft 420 kts 237°
2026-05-07 16:17 44.71184 2.63292 36991 ft 420 kts 236°
2026-05-07 16:18 44.67978 2.56417 36988 ft 420 kts 236°
2026-05-07 16:18 44.64748 2.49496 36991 ft 421 kts 236°
2026-05-07 16:19 44.61524 2.42582 36988 ft 421 kts 236°
2026-05-07 16:19 44.58304 2.35698 36988 ft 421 kts 236°
2026-05-07 16:20 44.55070 2.28792 36988 ft 422 kts 236°
2026-05-07 16:20 44.51822 2.21886 36988 ft 422 kts 236°
2026-05-07 16:21 44.48540 2.14926 36990 ft 422 kts 236°
2026-05-07 16:21 44.45284 2.08035 36994 ft 422 kts 236°
2026-05-07 16:22 44.42016 2.01121 36993 ft 422 kts 236°
2026-05-07 16:22 44.38754 1.94241 36990 ft 422 kts 236°
2026-05-07 16:23 44.36046 1.88552 36985 ft 422 kts 236°
2026-05-07 16:23 44.32768 1.81668 36985 ft 422 kts 236°
2026-05-07 16:24 44.29510 1.74843 36985 ft 423 kts 236°
2026-05-07 16:24 44.26278 1.67924 36984 ft 423 kts 237°
2026-05-07 16:25 44.23130 1.61011 36981 ft 423 kts 237°
2026-05-07 16:25 44.19952 1.54055 36983 ft 423 kts 237°
2026-05-07 16:26 44.16765 1.47140 36976 ft 423 kts 237°
2026-05-07 16:26 44.13562 1.40220 36976 ft 423 kts 237°
2026-05-07 16:27 44.10335 1.33271 36973 ft 423 kts 237°
2026-05-07 16:27 44.07136 1.26399 36974 ft 424 kts 237°
2026-05-07 16:28 44.03912 1.19485 36972 ft 424 kts 237°
2026-05-07 16:28 44.00678 1.12564 36974 ft 424 kts 237°
2026-05-07 16:29 43.97463 1.05699 36969 ft 424 kts 237°
2026-05-07 16:29 43.94243 0.98837 36970 ft 424 kts 237°
2026-05-07 16:30 43.90992 0.91944 36969 ft 424 kts 237°
2026-05-07 16:30 43.87411 0.85558 36966 ft 425 kts 224°
2026-05-07 16:31 43.82983 0.80076 36965 ft 425 kts 223°
2026-05-07 16:31 43.78523 0.74584 36965 ft 425 kts 223°
2026-05-07 16:32 43.74122 0.69144 36965 ft 425 kts 223°
2026-05-07 16:32 43.69700 0.63695 36966 ft 425 kts 223°
2026-05-07 16:33 43.65253 0.58248 36963 ft 425 kts 223°
2026-05-07 16:33 43.60786 0.52789 36961 ft 425 kts 223°
2026-05-07 16:34 43.56401 0.47420 36957 ft 425 kts 223°
2026-05-07 16:34 43.51965 0.42003 36959 ft 425 kts 223°
2026-05-07 16:35 43.47470 0.36538 36951 ft 425 kts 223°
2026-05-07 16:35 43.43025 0.31141 36956 ft 425 kts 223°
2026-05-07 16:36 43.38563 0.25731 36956 ft 425 kts 223°
2026-05-07 16:36 43.34089 0.20309 36959 ft 425 kts 223°
2026-05-07 16:37 43.29614 0.14900 36962 ft 425 kts 223°
2026-05-07 16:37 43.25888 0.10420 36963 ft 425 kts 223°
2026-05-07 16:38 43.21438 0.05062 36966 ft 425 kts 223°
2026-05-07 16:38 43.16992 -0.00284 36964 ft 425 kts 223°
2026-05-07 16:39 43.12538 -0.05612 36962 ft 425 kts 223°
2026-05-07 16:39 43.08084 -0.10930 36961 ft 425 kts 223°
2026-05-07 16:40 43.03591 -0.16286 36962 ft 425 kts 223°
2026-05-07 16:40 42.99145 -0.21579 36944 ft 423 kts 221°
2026-05-07 16:41 42.94705 -0.26856 36979 ft 422 kts 221°
2026-05-07 16:41 42.90258 -0.32140 36974 ft 422 kts 221°
2026-05-07 16:42 42.85828 -0.37378 36976 ft 421 kts 221°
2026-05-07 16:42 42.81335 -0.42511 36955 ft 421 kts 215°
2026-05-07 16:43 42.76079 -0.46012 36963 ft 423 kts 202°
2026-05-07 16:43 42.70569 -0.48895 36945 ft 424 kts 203°
2026-05-07 16:44 42.65071 -0.51789 36939 ft 424 kts 203°
2026-05-07 16:44 42.59568 -0.54682 36942 ft 425 kts 203°
2026-05-07 16:45 42.54059 -0.57567 36944 ft 425 kts 203°
2026-05-07 16:45 42.48529 -0.60466 36941 ft 426 kts 203°
2026-05-07 16:46 42.43002 -0.63352 36934 ft 426 kts 203°
2026-05-07 16:46 42.37432 -0.66254 36923 ft 426 kts 203°
2026-05-07 16:47 42.31895 -0.69133 36938 ft 427 kts 203°
2026-05-07 16:47 42.26355 -0.72006 36930 ft 427 kts 203°
2026-05-07 16:48 42.20798 -0.74880 36932 ft 427 kts 203°
2026-05-07 16:48 42.15218 -0.77773 36927 ft 427 kts 203°
2026-05-07 16:49 42.09676 -0.80635 36919 ft 428 kts 203°
2026-05-07 16:49 42.04058 -0.83524 36920 ft 428 kts 203°
2026-05-07 16:50 41.98497 -0.86379 36909 ft 428 kts 203°
2026-05-07 16:50 41.92889 -0.89267 36931 ft 429 kts 203°
2026-05-07 16:51 41.87305 -0.92127 36942 ft 429 kts 203°
2026-05-07 16:51 41.81729 -0.94972 36940 ft 429 kts 203°
2026-05-07 16:52 41.76149 -0.97815 36947 ft 430 kts 203°
2026-05-07 16:52 41.70549 -1.00665 36952 ft 430 kts 203°
2026-05-07 16:53 41.65044 -1.03834 36952 ft 426 kts 213°
2026-05-07 16:53 41.60150 -1.08273 36949 ft 425 kts 217°
2026-05-07 16:54 41.55273 -1.12755 36946 ft 425 kts 216°
2026-05-07 16:54 41.50396 -1.17224 36948 ft 426 kts 216°
2026-05-07 16:55 41.45520 -1.21688 36930 ft 426 kts 216°
2026-05-07 16:55 41.40631 -1.26156 36935 ft 426 kts 216°
2026-05-07 16:56 41.35711 -1.30637 36929 ft 426 kts 216°
2026-05-07 16:56 41.28378 -1.37304 36924 ft 426 kts 217°
2026-05-07 16:57 41.23470 -1.41752 36932 ft 426 kts 217°
2026-05-07 16:57 41.18584 -1.46189 36926 ft 426 kts 217°
2026-05-07 16:58 41.13689 -1.50634 36929 ft 426 kts 217°
2026-05-07 16:58 41.08799 -1.55060 36935 ft 426 kts 217°
2026-05-07 16:59 41.03890 -1.59476 36937 ft 427 kts 217°
2026-05-07 16:59 40.98966 -1.63901 36941 ft 427 kts 217°
2026-05-07 17:00 40.94050 -1.68318 36938 ft 427 kts 217°
2026-05-07 17:00 40.89144 -1.72722 36981 ft 426 kts 217°
2026-05-07 17:01 40.84234 -1.77119 36967 ft 421 kts 217°
2026-05-07 17:01 40.79393 -1.81439 36957 ft 419 kts 217°
2026-05-07 17:02 40.75377 -1.85021 36955 ft 419 kts 217°
2026-05-07 17:02 40.70564 -1.89306 36948 ft 418 kts 217°
2026-05-07 17:03 40.65718 -1.93604 36896 ft 418 kts 218°
2026-05-07 17:03 40.60852 -1.97921 36958 ft 418 kts 217°
2026-05-07 17:04 40.56048 -2.02174 36960 ft 417 kts 217°
2026-05-07 17:04 40.51233 -2.06424 36955 ft 417 kts 217°
2026-05-07 17:05 40.46392 -2.10695 36933 ft 420 kts 217°
2026-05-07 17:05 40.41521 -2.14985 36937 ft 423 kts 217°
2026-05-07 17:06 40.36624 -2.19295 36933 ft 424 kts 217°
2026-05-07 17:06 40.31726 -2.23593 36939 ft 425 kts 217°
2026-05-07 17:07 40.26795 -2.27909 36949 ft 425 kts 217°
2026-05-07 17:07 40.21843 -2.32239 36954 ft 425 kts 217°
2026-05-07 17:08 40.16922 -2.36524 36961 ft 425 kts 217°
2026-05-07 17:08 40.11993 -2.40809 36970 ft 425 kts 217°
2026-05-07 17:09 40.07075 -2.45089 36970 ft 425 kts 217°
2026-05-07 17:09 40.02161 -2.49368 36975 ft 424 kts 217°
2026-05-07 17:10 39.97246 -2.53632 36974 ft 424 kts 217°
2026-05-07 17:10 39.92318 -2.57894 36975 ft 424 kts 217°
2026-05-07 17:11 39.87369 -2.62160 36974 ft 424 kts 217°
2026-05-07 17:11 39.82454 -2.66390 36976 ft 424 kts 217°
2026-05-07 17:12 39.77531 -2.70629 36975 ft 424 kts 217°
2026-05-07 17:12 39.72622 -2.74850 36995 ft 424 kts 217°
2026-05-07 17:13 39.67689 -2.79082 36988 ft 424 kts 217°
2026-05-07 17:13 39.62770 -2.83298 36981 ft 424 kts 217°
2026-05-07 17:14 39.57860 -2.87502 36980 ft 423 kts 217°
2026-05-07 17:14 39.52947 -2.91698 36976 ft 423 kts 217°
2026-05-07 17:15 39.48005 -2.95907 36966 ft 422 kts 217°
2026-05-07 17:15 39.43104 -3.00072 36959 ft 422 kts 217°
2026-05-07 17:16 39.37982 -3.03733 36954 ft 428 kts 206°
2026-05-07 17:16 39.32359 -3.06461 36945 ft 428 kts 206°
2026-05-07 17:17 39.26788 -3.09170 36939 ft 428 kts 206°
2026-05-07 17:17 39.21219 -3.11872 36939 ft 427 kts 206°
2026-05-07 17:18 39.15651 -3.14576 36932 ft 427 kts 206°
2026-05-07 17:18 39.10093 -3.17268 36928 ft 427 kts 206°
2026-05-07 17:19 39.04538 -3.19957 36929 ft 426 kts 206°
2026-05-07 17:19 38.98992 -3.22633 36927 ft 426 kts 206°
2026-05-07 17:20 38.93437 -3.25298 36923 ft 426 kts 206°
2026-05-07 17:20 38.87843 -3.27983 36923 ft 426 kts 206°
2026-05-07 17:21 38.82297 -3.30641 36922 ft 426 kts 206°
2026-05-07 17:21 38.76747 -3.33306 36920 ft 425 kts 206°
2026-05-07 17:22 38.71209 -3.35962 36922 ft 425 kts 206°
2026-05-07 17:22 38.65659 -3.38605 36920 ft 425 kts 206°
2026-05-07 17:23 38.60115 -3.41255 36815 ft 425 kts 208°
2026-05-07 17:23 38.54531 -3.43925 36906 ft 433 kts 209°
2026-05-07 17:24 38.48869 -3.46617 36898 ft 434 kts 209°
2026-05-07 17:24 38.43214 -3.49290 36900 ft 435 kts 209°
2026-05-07 17:25 38.37487 -3.51995 36897 ft 436 kts 209°
2026-05-07 17:25 38.31802 -3.54679 36892 ft 435 kts 209°
2026-05-07 17:26 38.26122 -3.57362 36894 ft 435 kts 209°
2026-05-07 17:26 38.20455 -3.60034 36893 ft 435 kts 209°
2026-05-07 17:27 38.14774 -3.62713 36903 ft 434 kts 210°
2026-05-07 17:27 38.09253 -3.65674 36904 ft 430 kts 213°
2026-05-07 17:28 38.03825 -3.68871 36893 ft 429 kts 213°
2026-05-07 17:28 37.98396 -3.72038 36897 ft 430 kts 212°
2026-05-07 17:29 37.92934 -3.75138 36895 ft 430 kts 212°
2026-05-07 17:29 37.87432 -3.78220 36901 ft 430 kts 212°
2026-05-07 17:30 37.81956 -3.81282 36900 ft 430 kts 212°
2026-05-07 17:30 37.76497 -3.84346 36904 ft 430 kts 212°
2026-05-07 17:31 37.71033 -3.87420 36904 ft 429 kts 212°
2026-05-07 17:31 37.66505 -3.89953 36904 ft 429 kts 212°
2026-05-07 17:32 37.61005 -3.93027 36904 ft 429 kts 212°
2026-05-07 17:32 37.55582 -3.96050 36903 ft 428 kts 212°
2026-05-07 17:33 37.50096 -3.99102 36895 ft 427 kts 212°
2026-05-07 17:33 37.44658 -4.02123 36904 ft 427 kts 212°
2026-05-07 17:34 37.39223 -4.05144 36903 ft 427 kts 212°
2026-05-07 17:34 37.33793 -4.08158 36908 ft 427 kts 212°
2026-05-07 17:35 37.28347 -4.11177 36906 ft 427 kts 212°
2026-05-07 17:35 37.22928 -4.14178 36906 ft 427 kts 212°
2026-05-07 17:36 37.17454 -4.17192 36908 ft 427 kts 212°
2026-05-07 17:36 37.12010 -4.20191 36914 ft 427 kts 212°
2026-05-07 17:37 37.06573 -4.23183 36918 ft 427 kts 212°
2026-05-07 17:37 37.01148 -4.26164 36910 ft 426 kts 212°
2026-05-07 17:38 36.95726 -4.29149 36930 ft 426 kts 212°
2026-05-07 17:38 36.90283 -4.32128 36921 ft 426 kts 211°
2026-05-07 17:39 36.84854 -4.35087 36912 ft 425 kts 211°
2026-05-07 17:39 36.79613 -4.38397 36912 ft 417 kts 220°
2026-05-07 17:40 36.74702 -4.42308 36916 ft 417 kts 220°
2026-05-07 17:40 36.69848 -4.46173 36918 ft 416 kts 220°
2026-05-07 17:41 36.64931 -4.50078 36918 ft 416 kts 220°
2026-05-07 17:41 36.60057 -4.53939 36920 ft 415 kts 220°
2026-05-07 17:42 36.55173 -4.57810 36921 ft 415 kts 219°
2026-05-07 17:42 36.50293 -4.61643 36921 ft 415 kts 219°
2026-05-07 17:43 36.45405 -4.65479 36925 ft 415 kts 219°
2026-05-07 17:43 36.40525 -4.69308 36926 ft 415 kts 219°
2026-05-07 17:44 36.35639 -4.73138 36921 ft 415 kts 219°
2026-05-07 17:44 36.30729 -4.76986 36924 ft 415 kts 219°
2026-05-07 17:45 36.25836 -4.80804 36921 ft 415 kts 220°
2026-05-07 17:45 36.21093 -4.84832 36925 ft 412 kts 223°
2026-05-07 17:46 36.16495 -4.89028 36926 ft 412 kts 223°
2026-05-07 17:46 36.11867 -4.93221 36940 ft 412 kts 223°
2026-05-07 17:47 36.07199 -4.97355 36935 ft 412 kts 222°
2026-05-07 17:47 36.02492 -5.01484 36947 ft 413 kts 222°
2026-05-07 17:48 35.97814 -5.05592 36946 ft 413 kts 222°
2026-05-07 17:48 35.93141 -5.09713 36944 ft 413 kts 222°
2026-05-07 17:49 35.88465 -5.13822 36944 ft 412 kts 222°
2026-05-07 17:49 35.83792 -5.17926 36942 ft 413 kts 222°
2026-05-07 17:50 35.79116 -5.22030 36944 ft 413 kts 222°
2026-05-07 17:50 35.74399 -5.26158 36945 ft 413 kts 222°
2026-05-07 17:51 35.69716 -5.30256 36923 ft 413 kts 222°
2026-05-07 17:51 35.65032 -5.34356 36922 ft 413 kts 222°
2026-05-07 17:52 35.60342 -5.38446 36925 ft 414 kts 221°
2026-05-07 17:52 35.55647 -5.42530 36927 ft 414 kts 221°
2026-05-07 17:53 35.50952 -5.46612 36924 ft 413 kts 221°
2026-05-07 17:53 35.46257 -5.50683 36924 ft 413 kts 221°
2026-05-07 17:54 35.41553 -5.54752 36917 ft 413 kts 221°
2026-05-07 17:54 35.36834 -5.58844 36919 ft 414 kts 221°
2026-05-07 17:55 35.32126 -5.62911 36929 ft 414 kts 221°
2026-05-07 17:55 35.27412 -5.66969 36930 ft 414 kts 221°
2026-05-07 17:56 35.22701 -5.71027 36929 ft 414 kts 221°
2026-05-07 17:56 35.17990 -5.75082 36930 ft 414 kts 221°
2026-05-07 17:57 35.14078 -5.78445 36931 ft 414 kts 221°
2026-05-07 17:57 35.08567 -5.83162 36928 ft 413 kts 221°
2026-05-07 17:58 35.03863 -5.87191 36923 ft 413 kts 221°
2026-05-07 17:58 34.99164 -5.91216 36922 ft 412 kts 221°
2026-05-07 17:59 34.95227 -5.94575 36918 ft 412 kts 221°
2026-05-07 17:59 34.90541 -5.98588 36916 ft 412 kts 221°
2026-05-07 18:00 34.85846 -6.02593 36914 ft 412 kts 221°
2026-05-07 18:00 34.81136 -6.06585 36914 ft 412 kts 221°
2026-05-07 18:01 34.76435 -6.10579 36912 ft 412 kts 221°
2026-05-07 18:01 34.71732 -6.14575 36912 ft 412 kts 221°
2026-05-07 18:02 34.64640 -6.20583 36936 ft 411 kts 221°
2026-05-07 18:03 34.59961 -6.24535 36943 ft 409 kts 221°
2026-05-07 18:03 34.55313 -6.28451 36944 ft 407 kts 221°
2026-05-07 18:04 34.50606 -6.32307 36939 ft 410 kts 215°
2026-05-07 18:04 34.45159 -6.34782 36940 ft 421 kts 204°
2026-05-07 18:05 34.39530 -6.36755 36929 ft 421 kts 204°
2026-05-07 18:05 34.33905 -6.38722 36931 ft 420 kts 204°
2026-05-07 18:06 34.28293 -6.40688 36922 ft 421 kts 204°
2026-05-07 18:06 34.22666 -6.42664 36921 ft 421 kts 204°
2026-05-07 18:06 34.19843 -6.43652 36663 ft 421 kts 204°
2026-05-07 18:07 34.17024 -6.44636 36057 ft 422 kts 203°
2026-05-07 18:07 34.14196 -6.45625 35427 ft 422 kts 203°
2026-05-07 18:07 34.11377 -6.46613 34726 ft 424 kts 203°
2026-05-07 18:07 34.08532 -6.47610 34006 ft 425 kts 203°
2026-05-07 18:08 34.05685 -6.48607 33206 ft 427 kts 202°
2026-05-07 18:08 34.02828 -6.49605 32436 ft 429 kts 202°
2026-05-07 18:08 33.99978 -6.50665 31664 ft 427 kts 206°
2026-05-07 18:08 33.97304 -6.52164 30768 ft 423 kts 214°
2026-05-07 18:09 33.94858 -6.54207 29656 ft 423 kts 223°
2026-05-07 18:09 33.92738 -6.56657 28878 ft 417 kts 227°
2026-05-07 18:09 33.90695 -6.59093 28200 ft 411 kts 227°
2026-05-07 18:09 33.88656 -6.61482 27516 ft 406 kts 226°
2026-05-07 18:10 33.86632 -6.63831 26837 ft 402 kts 226°
2026-05-07 18:10 33.84631 -6.66147 26174 ft 398 kts 226°
2026-05-07 18:10 33.82648 -6.68450 25520 ft 394 kts 226°
2026-05-07 18:10 33.80696 -6.70723 24876 ft 390 kts 226°
2026-05-07 18:11 33.78754 -6.72990 24229 ft 387 kts 226°
2026-05-07 18:11 33.77481 -6.74479 23816 ft 384 kts 226°
2026-05-07 18:11 33.74934 -6.77454 22926 ft 379 kts 226°
2026-05-07 18:11 33.73054 -6.79647 22331 ft 374 kts 226°
2026-05-07 18:12 33.71205 -6.81804 21795 ft 368 kts 226°
2026-05-07 18:12 33.69379 -6.83931 21273 ft 363 kts 226°
2026-05-07 18:12 33.67553 -6.86053 20757 ft 358 kts 226°
2026-05-07 18:12 33.65756 -6.88033 20264 ft 355 kts 220°
2026-05-07 18:13 33.63653 -6.89642 19759 ft 355 kts 210°
2026-05-07 18:13 33.61349 -6.90719 19253 ft 356 kts 202°
2026-05-07 18:13 33.59000 -6.91637 18749 ft 354 kts 202°
2026-05-07 18:13 33.56668 -6.92552 18224 ft 353 kts 202°
2026-05-07 18:14 33.54334 -6.93474 17651 ft 351 kts 202°
2026-05-07 18:14 33.52018 -6.94393 17112 ft 349 kts 201°
2026-05-07 18:14 33.49720 -6.95308 16584 ft 347 kts 201°
2026-05-07 18:14 33.47429 -6.96218 16038 ft 347 kts 201°
2026-05-07 18:15 33.45141 -6.97120 15506 ft 346 kts 201°
2026-05-07 18:15 33.42855 -6.98018 14961 ft 345 kts 200°
2026-05-07 18:15 33.40574 -6.98915 14407 ft 345 kts 200°
2026-05-07 18:15 33.38292 -6.99812 13855 ft 345 kts 200°
2026-05-07 18:16 33.36019 -7.00708 13253 ft 344 kts 200°
2026-05-07 18:16 33.33721 -7.01614 12675 ft 341 kts 200°
2026-05-07 18:16 33.31533 -7.02476 12138 ft 330 kts 200°
2026-05-07 18:16 33.29397 -7.03314 11970 ft 308 kts 200°
2026-05-07 18:17 33.27428 -7.04085 11626 ft 290 kts 200°
2026-05-07 18:17 33.25545 -7.04822 11143 ft 280 kts 200°
2026-05-07 18:17 33.23731 -7.05533 10714 ft 270 kts 200°
2026-05-07 18:17 33.21984 -7.06218 10278 ft 258 kts 201°
2026-05-07 18:18 33.20406 -7.07128 9865 ft 249 kts 214°
2026-05-07 18:18 33.19124 -7.08462 9403 ft 242 kts 228°
2026-05-07 18:18 33.18194 -7.10098 8947 ft 237 kts 241°
2026-05-07 18:18 33.17633 -7.11941 8481 ft 235 kts 254°
2026-05-07 18:19 33.17339 -7.13836 8035 ft 230 kts 256°
2026-05-07 18:19 33.17048 -7.15691 7684 ft 224 kts 256°
2026-05-07 18:19 33.16769 -7.17481 7444 ft 215 kts 256°
2026-05-07 18:19 33.16505 -7.19185 7262 ft 204 kts 256°
2026-05-07 18:20 33.16271 -7.20694 7088 ft 196 kts 256°
2026-05-07 18:20 33.16022 -7.22285 6853 ft 194 kts 256°
2026-05-07 18:20 33.15772 -7.23870 6626 ft 193 kts 256°
2026-05-07 18:20 33.15524 -7.25446 6410 ft 188 kts 256°
2026-05-07 18:21 33.15287 -7.26958 6156 ft 183 kts 256°
2026-05-07 18:21 33.15057 -7.28421 5909 ft 177 kts 257°
2026-05-07 18:21 33.14831 -7.29856 5663 ft 175 kts 258°
2026-05-07 18:21 33.14606 -7.31286 5410 ft 175 kts 258°
2026-05-07 18:22 33.14383 -7.32709 5164 ft 175 kts 259°
2026-05-07 18:22 33.14230 -7.33651 5004 ft 175 kts 259°
2026-05-07 18:22 33.13906 -7.35546 4734 ft 173 kts 259°
2026-05-07 18:22 33.13655 -7.36963 4642 ft 175 kts 260°
2026-05-07 18:23 33.13433 -7.38392 4542 ft 175 kts 261°
2026-05-07 18:23 33.13219 -7.39820 4459 ft 175 kts 262°
2026-05-07 18:23 33.13005 -7.41248 4384 ft 174 kts 262°
2026-05-07 18:23 33.12790 -7.42670 4299 ft 175 kts 262°
2026-05-07 18:24 33.12573 -7.44096 4200 ft 174 kts 262°
2026-05-07 18:24 33.12354 -7.45518 4099 ft 174 kts 263°
2026-05-07 18:24 33.12131 -7.46952 4010 ft 173 kts 263°
2026-05-07 18:24 33.12056 -7.48354 3943 ft 170 kts 282°
2026-05-07 18:25 33.12405 -7.49688 3945 ft 165 kts 303°
2026-05-07 18:25 33.13100 -7.50748 3944 ft 162 kts 322°
2026-05-07 18:25 33.14045 -7.51443 3948 ft 159 kts 341°
2026-05-07 18:25 33.15102 -7.51819 3948 ft 159 kts 346°
2026-05-07 18:26 33.16166 -7.52181 3949 ft 160 kts 346°
2026-05-07 18:26 33.17239 -7.52546 3953 ft 161 kts 345°
2026-05-07 18:26 33.18317 -7.52914 3944 ft 162 kts 345°
2026-05-07 18:26 33.19397 -7.53282 3821 ft 161 kts 345°
2026-05-07 18:27 33.20469 -7.53647 3634 ft 159 kts 345°
2026-05-07 18:27 33.21531 -7.54010 3436 ft 157 kts 346°
2026-05-07 18:27 33.22578 -7.54367 3234 ft 157 kts 346°
2026-05-07 18:27 33.23284 -7.54608 3097 ft 155 kts 346°
2026-05-07 18:28 33.24665 -7.55079 2818 ft 157 kts 346°
2026-05-07 18:28 33.25358 -7.55315 2701 ft 157 kts 346°
2026-05-07 18:28 33.26388 -7.55668 2494 ft 143 kts 346°
2026-05-07 18:28 33.27305 -7.55982 2286 ft 133 kts 347°
2026-05-07 18:29 33.28186 -7.56282 2110 ft 131 kts 347°
2026-05-07 18:29 33.29049 -7.56577 1918 ft 130 kts 347°
2026-05-07 18:29 33.29918 -7.56874 1761 ft 128 kts 346°
2026-05-07 18:29 33.30771 -7.57166 1588 ft 126 kts 347°
2026-05-07 18:30 33.31613 -7.57453 1423 ft 126 kts 346°
2026-05-07 18:30 33.32466 -7.57745 1242 ft 128 kts 346°
2026-05-07 18:30 33.33320 -7.58037 1083 ft 127 kts 345°
2026-05-07 18:30 33.34166 -7.58327 909 ft 126 kts 344°
2026-05-07 18:31 33.35009 -7.58614 724 ft 126 kts 344°
2026-05-07 18:31 33.35826 -7.58894 650 ft 110 kts 344°
2026-05-07 18:31 33.36288 -7.59053 653 ft 32 kts 344°
2026-05-07 18:31 33.36463 -7.59078 652 ft 19 kts
2026-05-07 18:32 33.36593 -7.59054 652 ft 19 kts 13°
2026-05-07 18:32 33.36717 -7.59017 652 ft 13 kts 14°
2026-05-07 18:32 33.36780 -7.58938 652 ft 16 kts 73°
2026-05-07 18:32 33.36812 -7.58802 653 ft 18 kts 73°
2026-05-07 18:33 33.36842 -7.58672 654 ft 8 kts 77°
2026-05-07 18:33 33.36844 -7.58663 653 ft 0 kts 76°
2026-05-07 18:34 33.36855 -7.58611 655 ft 9 kts 75°
2026-05-07 18:34 33.36872 -7.58544 653 ft 8 kts 70°
2026-05-07 18:34 33.36887 -7.58481 654 ft 10 kts 75°
2026-05-07 18:34 33.36904 -7.58407 653 ft 9 kts 75°
2026-05-07 18:35 33.36918 -7.58342 653 ft 7 kts 75°
2026-05-07 18:35 33.36933 -7.58280 654 ft 10 kts 72°
2026-05-07 18:35 33.36982 -7.58221 653 ft 9 kts 47°
2026-05-07 18:35 33.36995 -7.58196 653 ft 4 kts 62°
2026-05-07 18:36 33.37013 -7.58150 653 ft 4 kts 65°
2026-05-07 18:36 33.37017 -7.58141 655 ft 1 kts 65°
2026-05-07 18:36 33.37020 -7.58132 654 ft 2 kts 65°
2026-05-07 18:36 33.37021 -7.58130 653 ft 0 kts 64°
2026-05-07 18:37 33.37021 -7.58129 653 ft 1 kts 64°
2026-05-07 18:37 33.37022 -7.58129 653 ft 0 kts 61°
2026-05-07 18:38 33.37032 -7.58146 655 ft 0 kts 75°